owner,sensor,date,latitude,longitude,vertical_datum,wind_speed,wind_to_direction,wind_speed_of_gust,qcFlag 
TCOON,ioos:station:TCOON:009:1,2007-12-01T00:00:00Z,27.8398,-97.0727,0.0,3.5,86.0,4.4,'11111222,11111222,11111222' 
TCOON,ioos:station:TCOON:009:1,2007-12-01T01:00:00Z,27.8398,-97.0727,0.0,2.9,107.0,4.1,'11111222,11111222,11111222' 
TCOON,ioos:station:TCOON:009:1,2007-12-01T03:00:00Z,27.8398,-97.0727,0.0,3.6,126.0,4.9,'11111222,11111222,11111222' 
TCOON,ioos:station:TCOON:009:1,2007-12-01T04:00:00Z,27.8398,-97.0727,0.0,3.6,117.0,5.2,'11111222,11111222,11111222' 
TCOON,ioos:station:TCOON:009:1,2007-12-01T05:00:00Z,27.8398,-97.0727,0.0,2.1,137.0,2.6,'11111222,11111222,11111222' 
TCOON,ioos:station:TCOON:009:1,2007-12-01T06:00:00Z,27.8398,-97.0727,0.0,3.2,130.0,4.7,'11111222,11111222,11111222' 
TCOON,ioos:station:TCOON:009:1,2007-12-01T07:00:00Z,27.8398,-97.0727,0.0,3.4,132.0,4.7,'11111222,11111222,11111222' 
TCOON,ioos:station:TCOON:009:1,2007-12-01T08:00:00Z,27.8398,-97.0727,0.0,4.2,130.0,5.8,'11111222,11111222,11111222' 
TCOON,ioos:station:TCOON:009:1,2007-12-01T09:00:00Z,27.8398,-97.0727,0.0,3.3,140.0,5.6,'11111222,11111222,11111222' 
TCOON,ioos:station:TCOON:009:1,2007-12-01T10:00:00Z,27.8398,-97.0727,0.0,3.7,143.0,5.5,'11111222,11111222,11111222' 
TCOON,ioos:station:TCOON:009:1,2007-12-01T11:00:00Z,27.8398,-97.0727,0.0,4.9,134.0,6.6,'11111222,11111222,11111222' 
TCOON,ioos:station:TCOON:009:1,2007-12-01T12:00:00Z,27.8398,-97.0727,0.0,2.8,149.0,4.3,'11111222,11111222,11111222' 
TCOON,ioos:station:TCOON:009:1,2007-12-01T13:00:00Z,27.8398,-97.0727,0.0,3.9,146.0,5.5,'11111222,11111222,11111222' 
TCOON,ioos:station:TCOON:009:1,2007-12-01T14:00:00Z,27.8398,-97.0727,0.0,3.8,140.0,5.5,'11111222,11111222,11111222' 
TCOON,ioos:station:TCOON:009:1,2007-12-01T15:00:00Z,27.8398,-97.0727,0.0,3.4,148.0,5.4,'11111222,11111222,11111222' 
TCOON,ioos:station:TCOON:009:1,2007-12-01T16:00:00Z,27.8398,-97.0727,0.0,6.4,147.0,8.4,'11111222,11111222,11111222' 
TCOON,ioos:station:TCOON:009:1,2007-12-01T17:00:00Z,27.8398,-97.0727,0.0,5.6,149.0,8.2,'11111222,11111222,11111222' 
TCOON,ioos:station:TCOON:009:1,2007-12-01T18:00:00Z,27.8398,-97.0727,0.0,4.5,168.0,6.9,'11111222,11111222,11111222' 
TCOON,ioos:station:TCOON:009:1,2007-12-01T20:00:00Z,27.8398,-97.0727,0.0,4.6,159.0,8.2,'11111222,11111222,11111222' 
TCOON,ioos:station:TCOON:009:1,2007-12-01T21:00:00Z,27.8398,-97.0727,0.0,5.0,154.0,8.3,'11111222,11111222,11111222' 
TCOON,ioos:station:TCOON:009:1,2007-12-01T22:00:00Z,27.8398,-97.0727,0.0,4.2,161.0,9.0,'11111222,11111222,11111222' 
TCOON,ioos:station:TCOON:009:1,2007-12-01T23:00:00Z,27.8398,-97.0727,0.0,4.2,163.0,6.7,'11111222,11111222,11111222' 
TCOON,ioos:station:TCOON:009:1,2007-12-02T00:00:00Z,27.8398,-97.0727,0.0,4.6,158.0,6.8,'11111222,11111222,11111222' 
TCOON,ioos:station:TCOON:009:1,2007-12-02T01:00:00Z,27.8398,-97.0727,0.0,2.9,160.0,4.8,'11111222,11111222,11111222' 
TCOON,ioos:station:TCOON:009:1,2007-12-02T02:00:00Z,27.8398,-97.0727,0.0,3.0,155.0,4.2,'11111222,11111222,11111222' 
TCOON,ioos:station:TCOON:009:1,2007-12-02T03:00:00Z,27.8398,-97.0727,0.0,2.5,164.0,5.0,'11111222,11111222,11111222' 
TCOON,ioos:station:TCOON:009:1,2007-12-02T04:00:00Z,27.8398,-97.0727,0.0,4.8,161.0,8.9,'11111222,11111222,11111222' 
TCOON,ioos:station:TCOON:009:1,2007-12-02T05:00:00Z,27.8398,-97.0727,0.0,3.2,162.0,5.4,'11111222,11111222,11111222' 
TCOON,ioos:station:TCOON:009:1,2007-12-02T06:00:00Z,27.8398,-97.0727,0.0,3.4,166.0,7.2,'11111222,11111222,11111222' 
TCOON,ioos:station:TCOON:009:1,2007-12-02T07:00:00Z,27.8398,-97.0727,0.0,3.8,165.0,7.3,'11111222,11111222,11111222' 
TCOON,ioos:station:TCOON:009:1,2007-12-02T08:00:00Z,27.8398,-97.0727,0.0,4.5,162.0,6.8,'11111222,11111222,11111222' 
TCOON,ioos:station:TCOON:009:1,2007-12-02T09:00:00Z,27.8398,-97.0727,0.0,3.3,169.0,5.7,'11111222,11111222,11111222' 
TCOON,ioos:station:TCOON:009:1,2007-12-02T10:00:00Z,27.8398,-97.0727,0.0,2.7,177.0,5.6,'11111222,11111222,11111222' 
TCOON,ioos:station:TCOON:009:1,2007-12-02T11:00:00Z,27.8398,-97.0727,0.0,4.0,170.0,6.0,'11111222,11111222,11111222' 
TCOON,ioos:station:TCOON:009:1,2007-12-02T12:00:00Z,27.8398,-97.0727,0.0,3.3,158.0,5.6,'11111222,11111222,11111222' 
TCOON,ioos:station:TCOON:009:1,2007-12-02T13:00:00Z,27.8398,-97.0727,0.0,4.2,158.0,7.6,'11111222,11111222,11111222' 
TCOON,ioos:station:TCOON:009:1,2007-12-02T14:00:00Z,27.8398,-97.0727,0.0,4.4,161.0,20.0,'11111222,11111222,11111222' 
TCOON,ioos:station:TCOON:009:1,2007-12-02T15:00:00Z,27.8398,-97.0727,0.0,3.5,161.0,6.7,'11111222,11111222,11111222' 
TCOON,ioos:station:TCOON:009:1,2007-12-02T16:00:00Z,27.8398,-97.0727,0.0,4.4,165.0,8.3,'11111222,11111222,11111222' 
TCOON,ioos:station:TCOON:009:1,2007-12-02T17:00:00Z,27.8398,-97.0727,0.0,4.0,180.0,6.1,'11111222,11111222,11111222' 
TCOON,ioos:station:TCOON:009:1,2007-12-02T18:00:00Z,27.8398,-97.0727,0.0,4.5,165.0,7.3,'11111222,11111222,11111222' 
TCOON,ioos:station:TCOON:009:1,2007-12-02T19:00:00Z,27.8398,-97.0727,0.0,3.0,161.0,4.3,'11111222,11111222,11111222' 
TCOON,ioos:station:TCOON:009:1,2007-12-02T20:00:00Z,27.8398,-97.0727,0.0,3.3,144.0,4.7,'11111222,11111222,11111222' 
TCOON,ioos:station:TCOON:009:1,2007-12-02T21:00:00Z,27.8398,-97.0727,0.0,2.9,155.0,4.2,'11111222,11111222,11111222' 
TCOON,ioos:station:TCOON:009:1,2007-12-02T22:00:00Z,27.8398,-97.0727,0.0,2.6,151.0,3.9,'11111222,11111222,11111222' 
TCOON,ioos:station:TCOON:009:1,2007-12-02T23:00:00Z,27.8398,-97.0727,0.0,1.1,155.0,1.7,'11111222,11111222,11111222' 
TCOON,ioos:station:TCOON:009:1,2007-12-03T00:00:00Z,27.8398,-97.0727,0.0,0.6,254.0,0.8,'11111222,11111222,11111222' 
TCOON,ioos:station:TCOON:009:1,2007-12-03T01:00:00Z,27.8398,-97.0727,0.0,1.0,97.0,1.2,'11111222,11111222,11111222' 
TCOON,ioos:station:TCOON:009:1,2007-12-03T02:00:00Z,27.8398,-97.0727,0.0,0.0,43.0,0.2,'11111222,11111222,11111222' 
TCOON,ioos:station:TCOON:009:1,2007-12-03T03:00:00Z,27.8398,-97.0727,0.0,0.1,43.0,0.3,'11111222,11111222,11111222' 
TCOON,ioos:station:TCOON:009:1,2007-12-03T04:00:00Z,27.8398,-97.0727,0.0,1.0,329.0,1.2,'11111222,11111222,11111222' 
TCOON,ioos:station:TCOON:009:1,2007-12-03T05:00:00Z,27.8398,-97.0727,0.0,2.4,331.0,2.7,'11111222,11111222,11111222' 
TCOON,ioos:station:TCOON:009:1,2007-12-03T06:00:00Z,27.8398,-97.0727,0.0,9.4,12.0,13.0,'11111222,11111222,11111222' 
TCOON,ioos:station:TCOON:009:1,2007-12-03T07:00:00Z,27.8398,-97.0727,0.0,8.7,11.0,11.1,'11111222,11111222,11111222' 
TCOON,ioos:station:TCOON:009:1,2007-12-03T08:00:00Z,27.8398,-97.0727,0.0,8.5,11.0,11.1,'11111222,11111222,11111222' 
TCOON,ioos:station:TCOON:009:1,2007-12-03T09:00:00Z,27.8398,-97.0727,0.0,10.5,13.0,14.0,'11111222,11111222,11111222' 
TCOON,ioos:station:TCOON:009:1,2007-12-03T10:00:00Z,27.8398,-97.0727,0.0,11.0,24.0,14.2,'11111222,11111222,11111222' 
TCOON,ioos:station:TCOON:009:1,2007-12-03T11:00:00Z,27.8398,-97.0727,0.0,10.9,16.0,13.8,'11111222,11111222,11111222' 
TCOON,ioos:station:TCOON:009:1,2007-12-03T12:00:00Z,27.8398,-97.0727,0.0,10.5,15.0,12.7,'11111222,11111222,11111222' 
TCOON,ioos:station:TCOON:009:1,2007-12-03T13:00:00Z,27.8398,-97.0727,0.0,10.9,11.0,13.3,'11111222,11111222,11111222' 
TCOON,ioos:station:TCOON:009:1,2007-12-03T14:00:00Z,27.8398,-97.0727,0.0,9.9,12.0,12.8,'11111222,11111222,11111222' 
TCOON,ioos:station:TCOON:009:1,2007-12-03T16:00:00Z,27.8398,-97.0727,0.0,9.3,17.0,11.6,'11111222,11111222,11111222' 
TCOON,ioos:station:TCOON:009:1,2007-12-03T17:00:00Z,27.8398,-97.0727,0.0,7.7,12.0,9.6,'11111222,11111222,11111222' 
TCOON,ioos:station:TCOON:009:1,2007-12-03T18:00:00Z,27.8398,-97.0727,0.0,6.7,8.0,8.3,'11111222,11111222,11111222' 
TCOON,ioos:station:TCOON:009:1,2007-12-03T19:00:00Z,27.8398,-97.0727,0.0,7.1,360.0,9.0,'11111222,11144222,11111222' 
TCOON,ioos:station:TCOON:009:1,2007-12-03T20:00:00Z,27.8398,-97.0727,0.0,6.5,358.0,7.7,'11111222,11111222,11111222' 
TCOON,ioos:station:TCOON:009:1,2007-12-03T21:00:00Z,27.8398,-97.0727,0.0,6.8,347.0,9.1,'11111222,11111222,11111222' 
TCOON,ioos:station:TCOON:009:1,2007-12-03T22:00:00Z,27.8398,-97.0727,0.0,6.6,351.0,8.1,'11111222,11111222,11111222' 
TCOON,ioos:station:TCOON:009:1,2007-12-03T23:00:00Z,27.8398,-97.0727,0.0,4.8,359.0,6.5,'11111222,11111222,11111222' 
TCOON,ioos:station:TCOON:009:1,2007-12-04T00:00:00Z,27.8398,-97.0727,0.0,3.2,360.0,3.9,'11111222,11144222,11111222' 
TCOON,ioos:station:TCOON:009:1,2007-12-04T01:00:00Z,27.8398,-97.0727,0.0,4.0,5.0,5.6,'11111222,11111222,11111222' 
TCOON,ioos:station:TCOON:009:1,2007-12-04T02:00:00Z,27.8398,-97.0727,0.0,4.2,7.0,5.7,'11111222,11111222,11111222' 
TCOON,ioos:station:TCOON:009:1,2007-12-04T03:00:00Z,27.8398,-97.0727,0.0,4.6,14.0,5.7,'11111222,11111222,11111222' 
TCOON,ioos:station:TCOON:009:1,2007-12-04T04:00:00Z,27.8398,-97.0727,0.0,4.4,37.0,6.0,'11111222,11111222,11111222' 
TCOON,ioos:station:TCOON:009:1,2007-12-04T05:00:00Z,27.8398,-97.0727,0.0,4.4,39.0,5.5,'11111222,11111222,11111222' 
TCOON,ioos:station:TCOON:009:1,2007-12-04T06:00:00Z,27.8398,-97.0727,0.0,4.2,40.0,5.3,'11111222,11111222,11111222' 
TCOON,ioos:station:TCOON:009:1,2007-12-04T07:00:00Z,27.8398,-97.0727,0.0,3.0,28.0,3.8,'11111222,11111222,11111222' 
TCOON,ioos:station:TCOON:009:1,2007-12-04T08:00:00Z,27.8398,-97.0727,0.0,3.4,38.0,4.2,'11111222,11111222,11111222' 
TCOON,ioos:station:TCOON:009:1,2007-12-04T09:00:00Z,27.8398,-97.0727,0.0,2.8,17.0,3.7,'11111222,11111222,11111222' 
TCOON,ioos:station:TCOON:009:1,2007-12-04T10:00:00Z,27.8398,-97.0727,0.0,2.3,25.0,3.0,'11111222,11111222,11111222' 
TCOON,ioos:station:TCOON:009:1,2007-12-04T11:00:00Z,27.8398,-97.0727,0.0,2.3,21.0,2.9,'11111222,11111222,11111222' 
TCOON,ioos:station:TCOON:009:1,2007-12-04T12:00:00Z,27.8398,-97.0727,0.0,2.2,7.0,2.8,'11111222,11111222,11111222' 
TCOON,ioos:station:TCOON:009:1,2007-12-04T13:00:00Z,27.8398,-97.0727,0.0,2.6,319.0,3.1,'11111222,11111222,11111222' 
TCOON,ioos:station:TCOON:009:1,2007-12-04T14:00:00Z,27.8398,-97.0727,0.0,1.7,358.0,2.2,'11111222,11111222,11111222' 
TCOON,ioos:station:TCOON:009:1,2007-12-04T17:00:00Z,27.8398,-97.0727,0.0,1.9,282.0,2.2,'11111222,11111222,11111222' 
TCOON,ioos:station:TCOON:009:1,2007-12-04T18:00:00Z,27.8398,-97.0727,0.0,1.8,285.0,2.0,'11111222,11111222,11111222' 
TCOON,ioos:station:TCOON:009:1,2007-12-04T19:00:00Z,27.8398,-97.0727,0.0,0.7,265.0,0.8,'11111222,11111222,11111222' 
TCOON,ioos:station:TCOON:009:1,2007-12-04T20:00:00Z,27.8398,-97.0727,0.0,2.1,125.0,2.8,'11111222,11111222,11111222' 
TCOON,ioos:station:TCOON:009:1,2007-12-04T21:00:00Z,27.8398,-97.0727,0.0,2.2,144.0,2.9,'11111222,11111222,11111222' 
TCOON,ioos:station:TCOON:009:1,2007-12-04T22:00:00Z,27.8398,-97.0727,0.0,2.6,162.0,3.8,'11111222,11111222,11111222' 
TCOON,ioos:station:TCOON:009:1,2007-12-04T23:00:00Z,27.8398,-97.0727,0.0,2.3,151.0,3.5,'11111222,11111222,11111222' 
TCOON,ioos:station:TCOON:009:1,2007-12-05T00:00:00Z,27.8398,-97.0727,0.0,1.7,144.0,2.4,'11111222,11111222,11111222' 
TCOON,ioos:station:TCOON:009:1,2007-12-05T01:00:00Z,27.8398,-97.0727,0.0,1.9,159.0,2.5,'11111222,11111222,11111222' 
TCOON,ioos:station:TCOON:009:1,2007-12-05T02:00:00Z,27.8398,-97.0727,0.0,2.5,154.0,3.2,'11111222,11111222,11111222' 
TCOON,ioos:station:TCOON:009:1,2007-12-05T03:00:00Z,27.8398,-97.0727,0.0,2.4,162.0,4.3,'11111222,11111222,11111222' 
TCOON,ioos:station:TCOON:009:1,2007-12-05T04:00:00Z,27.8398,-97.0727,0.0,1.8,169.0,2.6,'11111222,11111222,11111222' 
TCOON,ioos:station:TCOON:009:1,2007-12-05T05:00:00Z,27.8398,-97.0727,0.0,3.6,187.0,4.6,'11111222,11111222,11111222' 
TCOON,ioos:station:TCOON:009:1,2007-12-05T06:00:00Z,27.8398,-97.0727,0.0,3.2,191.0,3.9,'11111222,11111222,11111222' 
TCOON,ioos:station:TCOON:009:1,2007-12-05T07:00:00Z,27.8398,-97.0727,0.0,1.7,207.0,2.5,'11111222,11111222,11111222' 
TCOON,ioos:station:TCOON:009:1,2007-12-05T08:00:00Z,27.8398,-97.0727,0.0,3.1,228.0,3.7,'11111222,11111222,11111222' 
TCOON,ioos:station:TCOON:009:1,2007-12-05T09:00:00Z,27.8398,-97.0727,0.0,2.3,237.0,3.5,'11111222,11111222,11111222' 
TCOON,ioos:station:TCOON:009:1,2007-12-05T13:00:00Z,27.8398,-97.0727,0.0,2.4,219.0,2.6,'11111222,11111222,11111222' 
TCOON,ioos:station:TCOON:009:1,2007-12-05T14:00:00Z,27.8398,-97.0727,0.0,1.1,221.0,1.4,'11111222,11111222,11111222' 
TCOON,ioos:station:TCOON:009:1,2007-12-05T16:00:00Z,27.8398,-97.0727,0.0,1.4,211.0,2.5,'11111222,11111222,11111222' 
TCOON,ioos:station:TCOON:009:1,2007-12-05T17:00:00Z,27.8398,-97.0727,0.0,4.1,179.0,5.6,'11111222,11111222,11111222' 
TCOON,ioos:station:TCOON:009:1,2007-12-05T18:00:00Z,27.8398,-97.0727,0.0,2.9,201.0,5.9,'11111222,11111222,11111222' 
TCOON,ioos:station:TCOON:009:1,2007-12-05T19:00:00Z,27.8398,-97.0727,0.0,3.1,188.0,4.9,'11111222,11111222,11111222' 
TCOON,ioos:station:TCOON:009:1,2007-12-05T20:00:00Z,27.8398,-97.0727,0.0,2.0,171.0,3.3,'11111222,11111222,11111222' 
TCOON,ioos:station:TCOON:009:1,2007-12-05T21:00:00Z,27.8398,-97.0727,0.0,1.9,169.0,2.9,'11111222,11111222,11111222' 
TCOON,ioos:station:TCOON:009:1,2007-12-05T22:00:00Z,27.8398,-97.0727,0.0,2.5,85.0,3.0,'11111222,11111222,11111222' 
TCOON,ioos:station:TCOON:009:1,2007-12-05T23:00:00Z,27.8398,-97.0727,0.0,3.2,97.0,4.2,'11111222,11111222,11111222' 
TCOON,ioos:station:TCOON:009:1,2007-12-06T00:00:00Z,27.8398,-97.0727,0.0,2.9,87.0,3.5,'11111222,11111222,11111222' 
TCOON,ioos:station:TCOON:009:1,2007-12-06T01:00:00Z,27.8398,-97.0727,0.0,2.8,97.0,3.9,'11111222,11111222,11111222' 
TCOON,ioos:station:TCOON:009:1,2007-12-06T02:00:00Z,27.8398,-97.0727,0.0,2.8,95.0,3.4,'11111222,11111222,11111222' 
TCOON,ioos:station:TCOON:009:1,2007-12-06T03:00:00Z,27.8398,-97.0727,0.0,2.1,105.0,3.0,'11111222,11111222,11111222' 
TCOON,ioos:station:TCOON:009:1,2007-12-06T04:00:00Z,27.8398,-97.0727,0.0,2.1,113.0,2.7,'11111222,11111222,11111222' 
TCOON,ioos:station:TCOON:009:1,2007-12-06T05:00:00Z,27.8398,-97.0727,0.0,2.2,127.0,2.8,'11111222,11111222,11111222' 
TCOON,ioos:station:TCOON:009:1,2007-12-06T06:00:00Z,27.8398,-97.0727,0.0,1.8,148.0,2.2,'11111222,11111222,11111222' 
TCOON,ioos:station:TCOON:009:1,2007-12-06T07:00:00Z,27.8398,-97.0727,0.0,1.0,145.0,1.4,'11111222,11111222,11111222' 
TCOON,ioos:station:TCOON:009:1,2007-12-06T08:00:00Z,27.8398,-97.0727,0.0,1.2,151.0,1.3,'11111222,11111222,11111222' 
TCOON,ioos:station:TCOON:009:1,2007-12-06T09:00:00Z,27.8398,-97.0727,0.0,1.3,72.0,1.5,'11111222,11111222,11111222' 
TCOON,ioos:station:TCOON:009:1,2007-12-06T10:00:00Z,27.8398,-97.0727,0.0,2.1,76.0,2.3,'11111222,11111222,11111222' 
TCOON,ioos:station:TCOON:009:1,2007-12-06T11:00:00Z,27.8398,-97.0727,0.0,1.9,78.0,2.2,'11111222,11111222,11111222' 
TCOON,ioos:station:TCOON:009:1,2007-12-06T12:00:00Z,27.8398,-97.0727,0.0,1.9,96.0,2.4,'11111222,11111222,11111222' 
TCOON,ioos:station:TCOON:009:1,2007-12-06T13:00:00Z,27.8398,-97.0727,0.0,2.0,84.0,2.6,'11111222,11111222,11111222' 
TCOON,ioos:station:TCOON:009:1,2007-12-06T14:00:00Z,27.8398,-97.0727,0.0,2.0,114.0,2.7,'11111222,11111222,11111222' 
TCOON,ioos:station:TCOON:009:1,2007-12-06T15:00:00Z,27.8398,-97.0727,0.0,2.4,110.0,3.3,'11111222,11111222,11111222' 
TCOON,ioos:station:TCOON:009:1,2007-12-06T16:00:00Z,27.8398,-97.0727,0.0,3.7,120.0,4.8,'11111222,11111222,11111222' 
TCOON,ioos:station:TCOON:009:1,2007-12-06T18:00:00Z,27.8398,-97.0727,0.0,5.3,130.0,7.1,'11111222,11111222,11111222' 
TCOON,ioos:station:TCOON:009:1,2007-12-06T19:00:00Z,27.8398,-97.0727,0.0,5.1,127.0,7.3,'11111222,11111222,11111222' 
TCOON,ioos:station:TCOON:009:1,2007-12-06T20:00:00Z,27.8398,-97.0727,0.0,4.7,132.0,7.1,'11111222,11111222,11111222' 
TCOON,ioos:station:TCOON:009:1,2007-12-06T21:00:00Z,27.8398,-97.0727,0.0,4.0,141.0,6.5,'11111222,11111222,11111222' 
TCOON,ioos:station:TCOON:009:1,2007-12-06T22:00:00Z,27.8398,-97.0727,0.0,3.8,133.0,4.9,'11111222,11111222,11111222' 
TCOON,ioos:station:TCOON:009:1,2007-12-06T23:00:00Z,27.8398,-97.0727,0.0,3.3,138.0,4.8,'11111222,11111222,11111222' 
TCOON,ioos:station:TCOON:009:1,2007-12-07T00:00:00Z,27.8398,-97.0727,0.0,3.6,140.0,5.0,'11111222,11111222,11111222' 
TCOON,ioos:station:TCOON:009:1,2007-12-07T01:00:00Z,27.8398,-97.0727,0.0,3.6,151.0,5.6,'11111222,11111222,11111222' 
TCOON,ioos:station:TCOON:009:1,2007-12-07T02:00:00Z,27.8398,-97.0727,0.0,2.8,157.0,5.0,'11111222,11111222,11111222' 
TCOON,ioos:station:TCOON:009:1,2007-12-07T03:00:00Z,27.8398,-97.0727,0.0,3.3,158.0,5.9,'11111222,11111222,11111222' 
TCOON,ioos:station:TCOON:009:1,2007-12-07T04:00:00Z,27.8398,-97.0727,0.0,4.2,162.0,7.2,'11111222,11111222,11111222' 
TCOON,ioos:station:TCOON:009:1,2007-12-07T05:00:00Z,27.8398,-97.0727,0.0,3.4,168.0,6.7,'11111222,11111222,11111222' 
TCOON,ioos:station:TCOON:009:1,2007-12-07T06:00:00Z,27.8398,-97.0727,0.0,4.2,172.0,5.9,'11111222,11111222,11111222' 
TCOON,ioos:station:TCOON:009:1,2007-12-07T07:00:00Z,27.8398,-97.0727,0.0,4.4,176.0,7.0,'11111222,11111222,11111222' 
TCOON,ioos:station:TCOON:009:1,2007-12-07T08:00:00Z,27.8398,-97.0727,0.0,4.0,176.0,5.7,'11111222,11111222,11111222' 
TCOON,ioos:station:TCOON:009:1,2007-12-07T09:00:00Z,27.8398,-97.0727,0.0,3.3,169.0,5.1,'11111222,11111222,11111222' 
TCOON,ioos:station:TCOON:009:1,2007-12-07T10:00:00Z,27.8398,-97.0727,0.0,3.5,162.0,5.8,'11111222,11111222,11111222' 
TCOON,ioos:station:TCOON:009:1,2007-12-07T11:00:00Z,27.8398,-97.0727,0.0,3.2,167.0,4.8,'11111222,11111222,11111222' 
TCOON,ioos:station:TCOON:009:1,2007-12-07T12:00:00Z,27.8398,-97.0727,0.0,3.2,162.0,4.8,'11111222,11111222,11111222' 
TCOON,ioos:station:TCOON:009:1,2007-12-07T13:00:00Z,27.8398,-97.0727,0.0,2.5,163.0,4.0,'11111222,11111222,11111222' 
TCOON,ioos:station:TCOON:009:1,2007-12-07T14:00:00Z,27.8398,-97.0727,0.0,3.7,162.0,6.7,'11111222,11111222,11111222' 
TCOON,ioos:station:TCOON:009:1,2007-12-07T15:00:00Z,27.8398,-97.0727,0.0,3.8,159.0,5.2,'11111222,11111222,11111222' 
TCOON,ioos:station:TCOON:009:1,2007-12-07T17:00:00Z,27.8398,-97.0727,0.0,5.0,169.0,9.6,'11111222,11111222,11111222' 
TCOON,ioos:station:TCOON:009:1,2007-12-07T18:00:00Z,27.8398,-97.0727,0.0,3.9,162.0,6.7,'11111222,11111222,11111222' 
TCOON,ioos:station:TCOON:009:1,2007-12-07T19:00:00Z,27.8398,-97.0727,0.0,6.2,163.0,8.4,'11111222,11111222,11111222' 
TCOON,ioos:station:TCOON:009:1,2007-12-07T20:00:00Z,27.8398,-97.0727,0.0,3.9,151.0,6.0,'11111222,11111222,11111222' 
TCOON,ioos:station:TCOON:009:1,2007-12-07T21:00:00Z,27.8398,-97.0727,0.0,5.3,139.0,8.2,'11111222,11111222,11111222' 
TCOON,ioos:station:TCOON:009:1,2007-12-07T22:00:00Z,27.8398,-97.0727,0.0,4.6,148.0,7.6,'11111222,11111222,11111222' 
TCOON,ioos:station:TCOON:009:1,2007-12-07T23:00:00Z,27.8398,-97.0727,0.0,4.6,145.0,7.8,'11111222,11111222,11111222' 
TCOON,ioos:station:TCOON:009:1,2007-12-08T00:00:00Z,27.8398,-97.0727,0.0,4.8,145.0,7.3,'11111222,11111222,11111222' 
TCOON,ioos:station:TCOON:009:1,2007-12-08T01:00:00Z,27.8398,-97.0727,0.0,5.6,146.0,9.0,'11111222,11111222,11111222' 
TCOON,ioos:station:TCOON:009:1,2007-12-08T02:00:00Z,27.8398,-97.0727,0.0,4.3,151.0,8.2,'11111222,11111222,11111222' 
TCOON,ioos:station:TCOON:009:1,2007-12-08T03:00:00Z,27.8398,-97.0727,0.0,3.4,148.0,5.1,'11111222,11111222,11111222' 
TCOON,ioos:station:TCOON:009:1,2007-12-08T04:00:00Z,27.8398,-97.0727,0.0,3.6,153.0,5.2,'11111222,11111222,11111222' 
TCOON,ioos:station:TCOON:009:1,2007-12-08T05:00:00Z,27.8398,-97.0727,0.0,4.9,156.0,7.2,'11111222,11111222,11111222' 
TCOON,ioos:station:TCOON:009:1,2007-12-08T06:00:00Z,27.8398,-97.0727,0.0,3.3,161.0,4.7,'11111222,11111222,11111222' 
TCOON,ioos:station:TCOON:009:1,2007-12-08T07:00:00Z,27.8398,-97.0727,0.0,3.3,155.0,6.0,'11111222,11111222,11111222' 
TCOON,ioos:station:TCOON:009:1,2007-12-08T08:00:00Z,27.8398,-97.0727,0.0,3.9,172.0,6.4,'11111222,11111222,11111222' 
TCOON,ioos:station:TCOON:009:1,2007-12-08T09:00:00Z,27.8398,-97.0727,0.0,3.9,177.0,7.7,'11111222,11111222,11111222' 
TCOON,ioos:station:TCOON:009:1,2007-12-08T10:00:00Z,27.8398,-97.0727,0.0,3.3,161.0,5.1,'11111222,11111222,11111222' 
TCOON,ioos:station:TCOON:009:1,2007-12-08T11:00:00Z,27.8398,-97.0727,0.0,2.4,159.0,5.4,'11111222,11111222,11111222' 
TCOON,ioos:station:TCOON:009:1,2007-12-08T12:00:00Z,27.8398,-97.0727,0.0,3.0,138.0,4.1,'11111222,11111222,11111222' 
TCOON,ioos:station:TCOON:009:1,2007-12-08T13:00:00Z,27.8398,-97.0727,0.0,3.5,145.0,5.7,'11111222,11111222,11111222' 
TCOON,ioos:station:TCOON:009:1,2007-12-08T14:00:00Z,27.8398,-97.0727,0.0,2.7,155.0,4.5,'11111222,11111222,11111222' 
TCOON,ioos:station:TCOON:009:1,2007-12-08T15:00:00Z,27.8398,-97.0727,0.0,4.0,143.0,5.8,'11111222,11111222,11111222' 
TCOON,ioos:station:TCOON:009:1,2007-12-08T16:00:00Z,27.8398,-97.0727,0.0,3.1,147.0,4.3,'11111222,11111222,11111222' 
TCOON,ioos:station:TCOON:009:1,2007-12-08T17:00:00Z,27.8398,-97.0727,0.0,4.1,134.0,6.0,'11111222,11111222,11111222' 
TCOON,ioos:station:TCOON:009:1,2007-12-08T18:00:00Z,27.8398,-97.0727,0.0,4.6,129.0,6.9,'11111222,11111222,11111222' 
TCOON,ioos:station:TCOON:009:1,2007-12-08T19:00:00Z,27.8398,-97.0727,0.0,4.0,130.0,6.6,'11111222,11111222,11111222' 
TCOON,ioos:station:TCOON:009:1,2007-12-08T20:00:00Z,27.8398,-97.0727,0.0,4.9,128.0,6.6,'11111222,11111222,11111222' 
TCOON,ioos:station:TCOON:009:1,2007-12-08T21:00:00Z,27.8398,-97.0727,0.0,6.0,119.0,8.1,'11111222,11111222,11111222' 
TCOON,ioos:station:TCOON:009:1,2007-12-08T22:00:00Z,27.8398,-97.0727,0.0,5.5,117.0,8.2,'11111222,11111222,11111222' 
TCOON,ioos:station:TCOON:009:1,2007-12-08T23:00:00Z,27.8398,-97.0727,0.0,4.9,122.0,7.4,'11111222,11111222,11111222' 
TCOON,ioos:station:TCOON:009:1,2007-12-09T00:00:00Z,27.8398,-97.0727,0.0,4.4,119.0,7.4,'11111222,11111222,11111222' 
TCOON,ioos:station:TCOON:009:1,2007-12-09T01:00:00Z,27.8398,-97.0727,0.0,5.8,127.0,8.0,'11111222,11111222,11111222' 
TCOON,ioos:station:TCOON:009:1,2007-12-09T02:00:00Z,27.8398,-97.0727,0.0,4.3,133.0,6.2,'11111222,11111222,11111222' 
TCOON,ioos:station:TCOON:009:1,2007-12-09T03:00:00Z,27.8398,-97.0727,0.0,5.3,135.0,7.0,'11111222,11111222,11111222' 
TCOON,ioos:station:TCOON:009:1,2007-12-09T04:00:00Z,27.8398,-97.0727,0.0,2.6,148.0,4.8,'11111222,11111222,11111222' 
TCOON,ioos:station:TCOON:009:1,2007-12-09T05:00:00Z,27.8398,-97.0727,0.0,3.5,149.0,5.1,'11111222,11111222,11111222' 
TCOON,ioos:station:TCOON:009:1,2007-12-09T06:00:00Z,27.8398,-97.0727,0.0,3.8,136.0,5.2,'11111222,11111222,11111222' 
TCOON,ioos:station:TCOON:009:1,2007-12-09T07:00:00Z,27.8398,-97.0727,0.0,3.2,144.0,5.0,'11111222,11111222,11111222' 
TCOON,ioos:station:TCOON:009:1,2007-12-09T08:00:00Z,27.8398,-97.0727,0.0,2.7,148.0,4.2,'11111222,11111222,11111222' 
TCOON,ioos:station:TCOON:009:1,2007-12-09T09:00:00Z,27.8398,-97.0727,0.0,4.0,136.0,5.9,'11111222,11111222,11111222' 
TCOON,ioos:station:TCOON:009:1,2007-12-09T10:00:00Z,27.8398,-97.0727,0.0,3.1,136.0,4.8,'11111222,11111222,11111222' 
TCOON,ioos:station:TCOON:009:1,2007-12-09T11:00:00Z,27.8398,-97.0727,0.0,3.4,137.0,5.3,'11111222,11111222,11111222' 
TCOON,ioos:station:TCOON:009:1,2007-12-09T12:00:00Z,27.8398,-97.0727,0.0,3.4,135.0,5.1,'11111222,11111222,11111222' 
TCOON,ioos:station:TCOON:009:1,2007-12-09T13:00:00Z,27.8398,-97.0727,0.0,3.8,136.0,6.1,'11111222,11111222,11111222' 
TCOON,ioos:station:TCOON:009:1,2007-12-09T14:00:00Z,27.8398,-97.0727,0.0,4.0,132.0,5.5,'11111222,11111222,11111222' 
TCOON,ioos:station:TCOON:009:1,2007-12-09T15:00:00Z,27.8398,-97.0727,0.0,4.1,128.0,6.9,'11111222,11111222,11111222' 
TCOON,ioos:station:TCOON:009:1,2007-12-09T16:00:00Z,27.8398,-97.0727,0.0,4.1,121.0,5.7,'11111222,11111222,11111222' 
TCOON,ioos:station:TCOON:009:1,2007-12-09T17:00:00Z,27.8398,-97.0727,0.0,4.8,119.0,7.3,'11111222,11111222,11111222' 
TCOON,ioos:station:TCOON:009:1,2007-12-09T18:00:00Z,27.8398,-97.0727,0.0,5.8,125.0,7.5,'11111222,11111222,11111222' 
TCOON,ioos:station:TCOON:009:1,2007-12-09T19:00:00Z,27.8398,-97.0727,0.0,4.9,120.0,6.9,'11111222,11111222,11111222' 
TCOON,ioos:station:TCOON:009:1,2007-12-09T20:00:00Z,27.8398,-97.0727,0.0,4.5,120.0,6.8,'11111222,11111222,11111222' 
TCOON,ioos:station:TCOON:009:1,2007-12-09T21:00:00Z,27.8398,-97.0727,0.0,4.8,114.0,6.4,'11111222,11111222,11111222' 
TCOON,ioos:station:TCOON:009:1,2007-12-09T22:00:00Z,27.8398,-97.0727,0.0,4.2,110.0,6.6,'11111222,11111222,11111222' 